Wind_Speed
35 35 35 33 32 31 30 28 28 27 27 26 25 23 22 20 20 19 18 18 18 17 15 13 12 11 11 10 10 10 9 9 9 9 10 11 11 11 10 8 7 7
35 35 35 34 33 32 31 30 29 28 28 26 25 23 21 20 19 19 19 19 18 17 16 14 13 12 12 12 11 11 10 10 10 9 10 10 11 12 11 11 10 9
36 36 36 36 35 34 33 31 29 28 28 27 25 24 22 20 19 19 19 19 19 18 17 15 14 13 12 13 13 12 12 11 10 10 11 11 11 11 11 12 12 11
37 37 37 37 36 35 34 32 30 29 28 28 27 25 23 21 19 19 19 19 19 18 17 16 15 14 13 13 14 14 13 12 11 11 11 12 11 11 11 11 11 11
38 38 38 37 36 35 34 33 33 32 30 29 28 26 25 23 21 20 20 19 19 19 18 17 16 15 14 14 15 16 16 14 13 11 12 12 12 12 12 11 11 10
38 38 38 38 36 35 34 34 35 34 32 31 30 28 27 26 24 23 22 21 20 19 19 18 18 17 16 16 16 17 18 17 15 13 14 14 13 13 12 11 11 10
37 38 38 37 36 35 35 35 35 35 34 32 31 30 29 28 27 25 24 23 22 21 21 20 20 19 18 18 17 18 19 19 17 16 16 15 15 14 14 12 12 12
37 38 38 37 36 36 36 36 36 36 34 32 32 32 31 30 30 28 26 25 24 24 23 22 21 20 20 20 20 19 20 20 19 19 18 17 17 16 16 15 14 14
37 37 37 36 36 36 37 37 37 36 35 33 33 33 32 31 31 30 29 27 26 26 25 24 23 22 21 21 21 21 21 22 21 21 20 20 20 19 18 18 17 18
36 36 35 36 37 37 38 38 37 36 36 35 34 33 33 33 33 32 30 29 28 28 27 27 26 25 24 23 23 22 22 23 22 22 23 23 23 22 21 21 21 21
36 35 35 36 38 39 39 39 38 37 37 36 35 34 34 33 33 33 32 31 31 30 30 29 28 27 26 26 25 24 24 24 24 24 24 24 25 24 24 24 24 24
36 35 35 37 38 39 39 39 38 37 37 37 37 36 35 34 34 33 33 32 33 32 32 31 30 29 29 28 28 27 26 26 25 25 26 26 26 26 25 25 26 26
36 36 37 37 38 39 39 38 38 37 37 37 37 37 36 35 35 35 34 34 34 33 33 32 31 31 31 31 30 30 29 28 28 28 28 28 28 28 27 26 26 26
37 37 37 37 38 38 37 37 37 37 37 37 36 36 37 37 36 37 36 35 35 34 34 33 33 33 33 33 32 32 31 31 30 30 30 30 30 30 29 28 28 27
37 36 36 36 36 36 36 37 37 37 37 37 37 37 38 38 37 37 36 36 36 36 35 35 34 35 35 35 35 34 33 33 32 31 31 31 31 31 30 30 29 28
37 36 36 36 36 37 37 37 37 37 37 37 37 38 38 38 37 37 37 37 36 36 36 36 36 37 37 37 36 36 35 34 33 33 32 32 31 31 31 31 30 30
37 37 36 36 37 38 37 37 37 36 36 36 37 38 38 37 37 36 37 37 37 37 37 37 38 39 39 39 38 37 36 35 34 34 33 33 32 32 32 32 31 31
37 36 36 37 37 37 37 37 36 35 35 35 36 37 37 36 36 37 37 37 37 37 37 38 39 40 41 40 40 39 37 36 36 35 34 33 33 33 33 32 32 31
37 36 36 37 37 38 37 36 34 34 35 35 36 36 36 36 37 37 37 37 37 37 38 38 39 40 41 41 40 39 38 37 36 36 35 35 34 34 34 33 32 31
36 35 36 37 37 37 36 34 34 35 36 36 35 34 34 35 36 37 37 37 37 38 39 39 39 40 41 41 41 40 38 37 37 37 36 36 35 34 34 34 33 32
36 36 36 36 36 35 34 33 34 35 35 35 34 34 35 36 36 36 37 38 38 38 38 39 40 41 40 41 41 40 39 37 37 37 37 36 35 35 34 34 34 33
36 36 36 35 34 32 32 32 33 34 35 35 34 33 34 35 35 36 37 37 38 37 37 39 41 41 41 41 41 40 39 37 37 37 37 36 36 35 35 35 35 34
35 35 35 34 33 32 33 34 34 34 34 33 32 32 33 34 35 36 37 37 37 37 37 39 41 42 41 42 42 40 38 37 37 38 37 37 37 36 36 35 35 35
36 36 36 35 35 35 36 37 37 37 36 33 30 30 32 34 35 35 35 36 37 38 39 40 41 42 41 41 42 40 39 38 38 38 37 37 37 37 36 36 36 36
34 36 37 36 37 38 38 37 36 35 33 34 34 35 35 35 34 33 33 35 37 38 39 39 41 41 40 41 41 40 39 39 38 37 36 36 36 36 36 36 37 37
26 31 35 36 38 39 39 37 35 32 33 36 39 39 38 36 34 34 34 35 36 37 38 39 40 41 40 41 40 40 39 39 38 37 37 36 36 36 36 36 36 37
Wind_Direction
215 218 220 221 222 223 224 226 228 230 230 230 231 231 231 230 228 227 227 225 225 226 227 228 229 230 230 229 230 234 238 242 243 246 247 245 243 246 253 262 269 271
215 218 220 222 223 224 224 226 229 231 232 234 236 236 236 235 233 232 231 228 227 228 230 231 232 233 232 230 231 235 241 249 254 257 256 253 248 247 253 261 264 266
215 217 219 222 224 224 225 226 229 231 233 236 238 238 237 236 236 237 236 234 233 232 232 234 237 238 236 233 232 236 243 251 260 265 263 260 256 254 257 261 261 261
214 217 219 222 225 226 226 227 229 231 233 236 238 239 237 236 238 240 241 241 239 237 235 236 239 241 241 239 236 236 241 250 259 264 265 264 262 262 263 263 260 257
215 217 219 221 224 227 228 228 230 232 234 237 238 239 237 236 238 242 245 246 245 243 241 241 242 244 245 246 243 240 241 247 254 260 266 266 263 264 265 266 262 256
216 218 219 221 224 226 228 230 231 233 236 238 238 238 239 238 239 243 246 248 248 248 246 246 246 247 248 248 249 246 243 245 251 257 264 267 263 259 260 265 264 257
215 217 219 221 223 225 229 231 232 234 236 239 239 239 241 241 242 245 247 248 249 249 249 249 249 249 249 250 251 249 246 246 250 255 261 264 262 257 256 260 265 262
216 217 218 220 221 223 227 230 232 234 236 238 239 240 242 243 244 246 248 248 247 247 248 249 250 251 250 250 251 250 248 247 249 253 257 260 259 258 257 259 264 266
216 217 218 218 219 221 224 227 230 232 235 237 239 241 243 243 244 246 247 247 247 246 247 248 249 250 249 249 249 249 248 248 249 252 255 257 259 259 260 261 262 265
215 216 217 217 219 221 223 224 226 229 232 235 238 241 243 243 242 243 245 246 246 246 246 247 248 248 248 248 248 248 248 248 250 252 254 256 259 261 263 264 264 265
214 215 216 217 219 221 222 223 224 226 229 233 236 239 241 241 240 241 242 244 245 246 246 246 247 248 249 249 249 249 249 249 250 252 254 256 258 261 264 265 265 266
214 214 215 217 219 221 222 223 223 223 226 229 233 235 238 239 239 240 241 242 244 246 245 246 247 248 250 252 252 251 251 251 251 252 254 255 257 260 262 264 266 266
214 214 215 217 220 221 222 223 223 223 224 226 229 232 234 236 238 239 241 242 244 245 245 246 247 248 250 252 253 253 252 252 252 252 253 254 256 257 259 261 264 265
215 216 217 218 220 221 222 223 223 223 224 225 226 228 231 233 236 238 240 242 243 245 246 247 248 248 249 250 251 252 253 253 253 252 252 253 254 256 257 258 261 263
216 216 217 219 220 221 222 223 224 224 225 225 226 227 230 232 233 236 238 240 242 244 246 248 248 249 249 250 250 251 251 252 253 252 251 252 252 254 255 256 258 261
215 216 217 218 219 220 222 223 224 225 225 225 226 228 229 230 231 233 234 237 239 242 244 246 247 248 250 250 251 251 251 251 251 251 251 250 250 251 253 255 257 259
214 215 216 217 219 220 222 223 224 224 225 225 226 228 229 230 230 231 233 235 237 239 241 243 245 247 249 250 250 250 250 248 248 250 250 249 249 249 251 254 256 258
213 214 215 217 219 221 222 223 223 223 224 225 226 228 229 229 230 231 233 234 235 237 239 241 243 246 248 249 249 249 248 247 246 247 248 248 248 249 250 253 254 256
213 213 215 217 219 221 222 222 222 223 224 225 227 228 228 229 230 231 232 233 233 235 237 239 242 245 247 248 248 249 248 246 244 245 245 246 247 248 250 251 252 253
212 213 215 218 220 221 221 221 221 223 225 226 227 228 228 229 230 231 232 233 233 234 236 239 241 243 245 247 247 248 248 246 244 243 244 245 247 248 249 250 251 252
211 213 215 218 219 219 220 220 221 223 225 226 227 227 229 230 231 232 233 233 234 234 235 238 241 243 244 246 247 247 247 245 243 242 242 244 246 247 248 249 251 252
211 212 214 216 217 217 218 220 222 224 225 226 226 227 230 232 233 234 234 234 235 234 235 238 241 243 243 244 246 247 245 244 242 241 241 242 244 246 247 249 251 251
211 212 213 214 214 214 216 218 221 224 226 227 227 228 229 231 232 234 236 236 236 235 234 237 240 242 242 243 245 245 243 241 240 240 240 240 243 246 246 248 250 251
211 211 212 212 213 213 216 218 218 220 222 223 225 230 233 234 235 236 237 237 236 236 235 237 240 242 242 242 244 243 240 238 238 238 238 239 242 244 246 247 249 251
211 212 212 211 212 215 217 219 220 218 217 216 220 227 232 235 235 236 238 239 239 238 238 237 240 242 242 242 242 241 239 237 236 234 234 236 239 242 245 246 248 251
209 211 213 213 215 218 220 221 222 221 219 219 220 223 227 231 232 232 236 239 240 240 240 238 239 241 242 242 242 241 239 236 233 231 232 234 236 239 242 244 246 249
Height
836 837 839 840 842 844 846 848 850 851 853 854 855 856 857 858 860 861 862 863 864 865 867 868 869 870 871 872 873 873 874 875 876 876 877 877 878 878 879 880 880 881
833 835 837 839 840 842 844 846 848 850 851 853 854 856 857 858 859 860 861 862 863 865 866 867 868 869 870 871 872 872 873 874 875 875 876 876 877 877 878 879 879 880
831 833 835 837 838 840 842 844 846 848 850 852 853 855 856 857 858 859 860 861 862 864 865 866 867 868 869 870 871 872 872 873 874 874 875 876 876 876 877 878 878 879
828 830 832 834 836 839 841 843 844 846 848 850 851 853 854 856 857 858 859 860 861 862 863 864 866 867 868 869 870 871 871 872 873 873 874 874 875 876 876 877 877 878
825 827 829 832 835 837 839 840 842 844 845 847 849 851 852 854 855 856 857 858 859 861 862 863 864 865 867 867 868 869 870 871 872 872 873 873 874 875 875 876 876 876
822 825 827 830 832 835 837 838 840 842 843 845 846 848 850 852 853 854 855 857 858 859 860 861 863 864 865 866 867 868 869 870 871 871 872 872 873 874 874 875 875 875
820 822 825 828 830 832 834 836 838 839 841 843 844 846 848 849 851 852 853 855 856 858 859 860 861 862 864 865 866 866 867 868 869 870 870 871 872 873 873 874 874 874
817 820 822 825 827 830 832 833 835 837 839 841 843 844 846 848 849 850 852 853 855 856 857 858 860 861 862 863 864 865 866 866 867 868 869 870 870 871 872 873 873 873
815 817 819 822 825 827 829 831 833 835 837 839 841 843 844 846 847 849 850 851 853 854 855 857 858 859 860 861 862 863 864 865 866 866 867 868 868 869 870 871 872 872
813 815 817 820 822 824 825 828 830 833 835 837 839 841 842 844 846 847 849 850 851 852 853 854 856 857 858 859 860 861 862 863 864 865 865 866 866 867 868 869 870 870
810 812 815 816 818 820 822 825 827 830 832 834 836 838 840 842 844 845 846 848 849 850 851 852 853 854 856 857 858 859 860 861 862 863 863 864 864 865 866 867 867 868
807 809 811 813 815 817 819 822 824 827 829 831 833 835 837 839 841 842 844 845 846 847 848 849 850 852 853 854 855 856 857 858 859 860 861 862 862 863 864 865 865 865
804 806 808 810 812 814 817 819 822 824 826 828 830 832 834 836 838 839 841 842 844 845 846 847 848 849 850 851 853 854 855 856 856 857 858 859 859 860 861 862 862 863
800 803 805 807 809 812 814 817 819 821 823 825 827 828 830 832 834 836 837 839 840 842 843 844 845 846 847 848 849 851 852 853 853 854 855 855 856 857 858 859 859 860
797 800 802 804 807 809 811 813 815 818 819 822 823 825 826 828 830 832 834 835 837 838 839 841 842 842 843 844 846 847 848 849 850 851 851 852 853 854 854 855 856 857
794 796 798 801 803 805 807 809 812 814 816 818 820 821 823 824 826 828 830 831 832 834 835 836 837 838 839 840 842 843 845 846 847 847 848 849 850 850 851 852 852 853
790 792 795 797 799 801 803 805 808 810 813 814 816 818 819 821 823 824 825 827 828 829 831 832 832 833 835 836 838 839 841 842 843 844 845 845 846 847 848 848 849 850
786 788 791 793 795 797 799 801 804 807 809 811 813 814 816 818 819 820 821 823 824 825 826 827 827 828 830 832 833 835 837 838 839 840 841 842 843 844 844 845 846 846
782 785 787 789 791 793 796 798 801 803 805 807 809 811 813 814 815 816 818 819 820 821 821 822 823 824 825 827 829 830 832 834 835 837 837 838 839 840 841 842 842 843
779 781 783 785 787 789 792 795 797 799 800 803 805 808 810 810 811 813 814 815 816 817 817 818 818 819 821 823 824 826 828 830 831 833 833 834 835 836 837 838 839 840
774 777 779 781 784 787 789 791 793 794 796 799 801 803 805 806 807 809 810 811 812 813 814 814 814 815 817 818 820 822 824 826 827 829 830 831 831 833 834 834 835 836
770 772 775 777 780 783 785 787 789 791 793 795 797 799 801 802 804 805 806 807 808 809 810 810 809 811 813 814 816 818 820 822 824 825 826 827 828 829 830 831 832 833
766 768 770 773 776 778 779 781 783 786 789 792 794 796 797 798 799 800 802 803 804 805 806 805 805 806 808 809 811 814 816 819 820 820 821 822 823 824 825 826 827 828
761 764 766 768 770 772 773 775 776 778 782 786 791 793 795 795 796 797 798 799 800 800 801 801 800 801 803 805 807 810 812 814 815 816 817 818 819 820 821 822 823 824
758 760 761 763 765 766 769 772 774 776 777 779 781 784 786 789 792 793 794 795 796 796 797 797 797 797 799 800 802 805 808 810 811 812 813 813 814 816 817 818 818 819
756 757 759 760 761 762 764 767 771 775 775 772 772 774 778 782 785 786 787 789 791 792 793 793 793 793 794 795 797 800 803 805 807 807 808 809 810 811 812 813 814 814